Location: Houhaj�rvi
(61.2667°N, 23.0167°E)
Time: 19:04:55
(UTC+00:00)

Cosmos 614 Rocket - Pass Details

Date: 13 December 2019
Orbit: 733 x 763 km, 74.1° (Epoch: 17 January)

Event Time Altitude Azimuth Distance (km) Brightness Sun altitude
Rises 17:03:15 0° 206° (SSW) 3,164 7.6 -25.1°
Reaches altitude 10° 17:05:36 10° 205° (SSW) 2,242 6.7 -25.4°
Enters shadow 17:10:12 70° 171° (S) 784 3.9 -25.9°
